Change the Weather History Date:

Friday, January 6, 2012

  Actual Average Record
Temperature  
Mean Temperature 65 °F -  
Max Temperature 73 °F 71 °F 84 °F (2004)
Min Temperature 57 °F 55 °F 53 °F (2007)
Growing Degree Days 15 (Base 50)    
Moisture  
Dew Point 55 °F    
Average Humidity 72    
Maximum Humidity 88    
Minimum Humidity 50    
Precipitation  
Precipitation 0.00 in 0.02 in - ()
Sea Level Pressure  
Sea Level Pressure 30.08 in    
Wind  
Wind Speed 4 mph ()    
Max Wind Speed 8 mph    
Max Gust Speed -    
Visibility 5.4 miles    
Events      
Averages and records for this station are not official NWS values.
T = Trace of Precipitation, MM = Missing Value Source: Averaged Metar Reports

Daily Weather History Graph

Daily Weather History Graph

Search for Another Location

Airport or City:

Trip Planner

Search our weather history database for the weather conditions in past years. The results will help you decide how hot, cold, wet, or windy it might be!

Date:

Astronomy

Jan. 06, 2012 Rise Set
Actual Time 6:20 AM AST 4:58 PM AST
Civil Twilight 5:55 AM AST 5:23 PM AST
Nautical Twilight 5:27 AM AST 5:51 PM AST
Astronomical Twilight 4:59 AM AST 6:19 PM AST
Moon 2:31 PM AST (1/6) 3:37 AM AST (1/6)
Length of Visible Light 11h 27m
Length of Day
10h 37m
Waxing Gibbous, 91% of the Moon is Illuminated
Jan 6
Waxing Gibbous
Jan 9
Full
Jan 16
Last Quarter
Jan 23
New
Jan 31
First Quarter

Hourly Weather History & Observations

Time (AST) Temp. Dew Point Humidity Pressure Visibility Wind Dir Wind Speed Gust Speed Precip Events Conditions
12:00 AM 62.6 °F 53.6 °F 72% 30.09 in - WNW 4.6 mph - N/A   Clear
12:30 AM 62.6 °F 53.6 °F 72% 30.09 in - WNW 4.6 mph - N/A   Clear
1:00 AM 60.8 °F 53.6 °F 77% 30.09 in - WNW 5.8 mph - N/A   Clear
1:30 AM 60.8 °F 53.6 °F 77% 30.09 in - WNW 4.6 mph - N/A   Clear
2:00 AM 60.8 °F 51.8 °F 72% 30.09 in - NW 4.6 mph - N/A   Clear
2:30 AM 60.8 °F 53.6 °F 77% 30.09 in - WNW 5.8 mph - N/A   Clear
3:00 AM 60.8 °F 51.8 °F 72% 30.06 in - NW 3.5 mph - N/A   Clear
3:30 AM 60.8 °F 53.6 °F 77% 30.06 in - WNW 3.5 mph - N/A   Clear
4:00 AM 60.8 °F 53.6 °F 77% 30.06 in - WNW 4.6 mph - N/A   Clear
4:30 AM 59.0 °F 53.6 °F 82% 30.09 in - Variable 2.3 mph - N/A   Clear
5:00 AM 59.0 °F 53.6 °F 82% 30.09 in 5.6 mi Variable 2.3 mph - N/A   Unknown
5:30 AM 57.2 °F 51.8 °F 82% 30.09 in 5.6 mi WSW 3.5 mph - N/A   Unknown
6:00 AM 57.2 °F 53.6 °F 88% 30.09 in 5.0 mi Variable 2.3 mph - N/A   Unknown
6:30 AM 57.2 °F 53.6 °F 88% 30.12 in 3.7 mi Variable 2.3 mph - N/A   Unknown
7:00 AM 57.2 °F 53.6 °F 88% 30.12 in 3.7 mi Variable 2.3 mph - N/A   Unknown
7:30 AM 59.0 °F 51.8 °F 77% 30.15 in 5.0 mi Variable 2.3 mph - N/A   Unknown
8:00 AM 60.8 °F 53.6 °F 77% 30.15 in 5.0 mi West 3.5 mph - N/A   Unknown
8:30 AM 62.6 °F 55.4 °F 77% 30.15 in 4.3 mi West 4.6 mph - N/A   Unknown
9:00 AM 62.6 °F 55.4 °F 77% 30.15 in 4.3 mi West 3.5 mph - N/A   Unknown
9:30 AM 64.4 °F 55.4 °F 73% 30.15 in 5.0 mi WNW 4.6 mph - N/A   Unknown
10:00 AM 66.2 °F 55.4 °F 68% 30.15 in 5.0 mi West 3.5 mph - N/A   Partly Cloudy
10:30 AM 68.0 °F 55.4 °F 64% 30.15 in 6.2 mi Variable 2.3 mph - N/A   Partly Cloudy
11:00 AM 69.8 °F 55.4 °F 60% 30.12 in 6.2 mi Variable 2.3 mph - N/A   Partly Cloudy
11:30 AM 69.8 °F 55.4 °F 60% 30.09 in - North 3.5 mph - N/A   Clear
12:00 PM 71.6 °F 53.6 °F 53% 30.09 in - East 3.5 mph - N/A   Clear
12:30 PM 71.6 °F 53.6 °F 53% 30.06 in - East 5.8 mph - N/A   Clear
1:00 PM 71.6 °F 53.6 °F 53% 30.06 in - NE 4.6 mph - N/A   Clear
1:30 PM 71.6 °F 53.6 °F 53% 30.06 in - ENE 4.6 mph - N/A   Clear
2:00 PM 71.6 °F 53.6 °F 53% 30.04 in - East 6.9 mph - N/A   Clear
2:30 PM 69.8 °F 51.8 °F 53% 30.04 in - East 8.1 mph - N/A   Clear
3:00 PM 69 °F 54 °F 50% 30.06 in 9 mi East 8.1 mph - -  
3:00 PM 69.8 °F 55.4 °F 60% 30.04 in - East 8.1 mph - N/A   Clear
3:30 PM 68.0 °F 53.6 °F 60% 30.04 in - East 8.1 mph - N/A   Clear
4:00 PM 68.0 °F 53.6 °F 60% 30.04 in - East 6.9 mph - N/A   Clear
4:30 PM 68.0 °F 55.4 °F 64% 30.04 in - East 5.8 mph - N/A   Clear
5:00 PM 66.2 °F 57.2 °F 73% 30.06 in - East 4.6 mph - N/A   Clear
5:30 PM 66.2 °F 57.2 °F 73% 30.06 in - East 3.5 mph - N/A   Clear
6:00 PM 66.2 °F 57.2 °F 73% 30.06 in - East 3.5 mph - N/A   Clear
6:30 PM 64.4 °F 57.2 °F 77% 30.06 in - East 4.6 mph - N/A   Clear
7:00 PM 64.4 °F 57.2 °F 77% 30.06 in - East 3.5 mph - N/A   Clear
7:30 PM 64.4 °F 57.2 °F 77% 30.09 in - ESE 4.6 mph - N/A   Clear
8:00 PM 64.4 °F 57.2 °F 77% 30.09 in - ESE 3.5 mph - N/A   Clear
8:30 PM 64.4 °F 57.2 °F 77% 30.06 in - SSE 4.6 mph - N/A   Clear
9:00 PM 64 °F 57 °F 72% 30.09 in 7 mi SSE 3.5 mph - -  
9:00 PM 64.4 °F 57.2 °F 77% 30.06 in - SSE 3.5 mph - N/A   Clear
9:30 PM 64.4 °F 57.2 °F 77% 30.06 in - SSE 4.6 mph - N/A   Clear
10:00 PM 64.4 °F 57.2 °F 77% 30.06 in - South 3.5 mph - N/A   Clear
10:30 PM 64.4 °F 59.0 °F 83% 30.06 in - SSE 3.5 mph - N/A   Clear
11:00 PM 64.4 °F 59.0 °F 83% 30.06 in - Variable 2.3 mph - N/A   Clear
11:30 PM 64.4 °F 59.0 °F 83% 30.06 in 5.6 mi Variable 1.2 mph - N/A   Unknown